Find Starlink 1153

NORAD ID: 45080 Int'l Des: 2020-006 Owner: SPXS Country: US Constellation: starlink operational
LEOCIRCULAR

Live Position

Loading 3D Globe...

About Starlink 1153

Description loading...

Upcoming Passes

Passes for default location (London). Set your location on the main map for personalized predictions.

Altitude History

Loading altitude history...

Two-Line Element Set

1 45080U 20006AN 26107.12893599 .00029966 00000-0 93809-3 0 9991
2 45080 53.1593 79.0162 0004309 92.7492 267.4004 15.32882826342769
Epoch: Apr 17, 2026 • Age: 10 hours

Current Status

Altitude 470.7 km
Velocity 7.64 km/s
Sub-Earth Point 52.94°N, 137.36°E
Launch Date Jan 29, 2020
Age 6.2 years
Type internet

Technical Details

Classification Payload
Mass 260.00 kg
Dry Mass 248.00 kg
Total Mass 260.00 kg
Length 0.20 m
Diameter 2.80 m
Span 9.00 m
Shape Box + pan
Manufacturer SPXS
Bus Type Starlink
Phase Status In Orbit
Owner/State SPXS/US

Most Searched